Location: Asheville, NC
(35.6000°N, 82.5500°W)
Time: 20:11:26
(UTC-04:00)

N. Korean satellite - Pass Details

Date: 05 January 2018
Orbit: 458 x 514 km, 97.2° (Epoch: 24 April)

Event Time Altitude Azimuth Distance (km) Brightness Sun altitude
Rises 18:34:31 0° 171° (S) 2,610 10.4 -12.6°
Reaches altitude 10° 18:36:37 10° 173° (S) 1,725 9.5 -13.0°
Maximum altitude 18:40:20 76° 258° (WSW) 527 6.8 -13.8°
Drops below altitude 10° 18:44:02 10° 345° (NNW) 1,717 9.3 -14.5°
Sets 18:46:07 0° 347° (NNW) 2,596 10.2 -14.9°
